Regional Weather Roundup
Issued by NWS

Home | Current Version | Previous Version | Text Only | Print | Product List | Glossary Off
Versions: 1 2 3 4 5 6 7 8 9 10 11 12 13 14 15 16 17 18 19 20 21 22 23 24 25 26 27 28 29 30 31 32 33 34 35 36 37 38 39 40 41 42 43 44 45 46 47 48 49 50

000
ASUS43 KDTX 280201
RWRMI
MICHIGAN HOURLY REGIONAL WEATHER ROUNDUP
NATIONAL WEATHER SERVICE DETROIT/PONTIAC MI
900 PM EST THU NOV 27 2014

NOTE: "FAIR" INDICATES FEW OR NO CLOUDS BELOW 12,000 FEET WITH NO
SIGNIFICANT WEATHER AND/OR OBSTRUCTION TO VISIBILITY.

MIZ047>049-052>055-059>063-066>070-074>076-081>083-280300-
SOUTHEAST LOWER MICHIGAN

CITY           SKY/WX    TMP DP  RH WIND       PRES   REMARKS
ADRIAN         CLOUDY    26  19  74 N13       30.30R WCI  15
ALMA           FLURRIES  21  11  64 NW13G20   30.32R WCI   9
ANN ARBOR      LGT SNOW  26  18  71 NW13      30.28R WCI  15
BAD AXE        FLURRIES  22  13  67 NW17      30.26R WCI   8
DETROIT CITY   PTCLDY    29  16  58 NW6       30.26S WCI  23
DETROIT        MOCLDY    27  18  69 W7        30.28R WCI  19
FLINT          CLOUDY    26  15  63 NW15      30.28R WCI  14
GROSSE ILE     MOCLDY    28  19  69 N8        30.26S WCI  20
HILLSDALE      CLOUDY    24  17  74 NW9       30.29R WCI  15
HOWELL         CLOUDY    24  14  67 NW10      30.28R WCI  13

CITY           SKY/WX    TMP DP  RH WIND       PRES   REMARKS
JACKSON        MOCLDY    22  15  75 NW7       30.30R WCI  13
LAMBERTVILLE   CLOUDY    30  25  80 NW6       30.29R WCI  24
LANSING        CLOUDY    23  14  68 NW10      30.31R WCI  12
LAPEER         CLOUDY    24  14  64 NW7G17    30.26R WCI  16
MASON          CLOUDY    23  15  72 NW9       30.30R WCI  13
MONROE         CLOUDY    28  19  69 NW8G16    30.27R WCI  20
MT. CLEMENS    MOCLDY    27  18  69 N13       30.24R WCI  16
PONTIAC        FLURRIES  25  14  63 NW14      30.24R WCI  13
PORT HOPE        N/A     23  10  57 NW14G23   30.24R WCI  11
PORT HURON     CLOUDY    27  18  69 NW9       30.25S WCI  17
TRI CITIES     CLOUDY    23   7  50 NW14      30.31R WCI  11
TROY           MOCLDY    28  18  64 W7        30.27S WCI  21
SAGINAW HB     MOCLDY    23  14  68 NW12      30.30R WCI  12
$$
MIZ043>046-050>051-056>058-064>065-071>073-077>080-280300-
SOUTHWEST LOWER MICHIGAN

CITY           SKY/WX    TMP DP  RH WIND       PRES   REMARKS
BATTLE CREEK   CLOUDY    23  13  65 NW12      30.32S WCI  12
BENTON HARBOR  CLOUDY    25  13  60 NW7G17    30.36R WCI  17
BIG RAPIDS     CLOUDY    19  15  84 NW3       30.31S
COLDWATER      CLOUDY    25  18  74 NW10      30.32R WCI  15
FREMONT        CLOUDY    20  13  77 W5        30.34S WCI  13
HOLLAND        CLOUDY    23  17  78 NE3       30.36R
GRAND RAPIDS   CLOUDY    21  12  68 NW14      30.34R WCI   8
IONIA          FLURRIES  23  13  65 NW8       30.32R WCI  14
KALAMAZOO      CLOUDY    22  16  78 N10       30.34R WCI  11
LUDINGTON      CLOUDY    19  11  68 N5        30.35S WCI  13
MARSHALL       CLOUDY    22  13  69 NW5       30.31R WCI  15
MOUNT PLEASANT CLEAR     19   8  60 W8        30.31R WCI   9
MUSKEGON       FLURRIES  22  10  60 N6        30.36S WCI  14
SOUTH HAVEN    CLOUDY    26  16  65 N7G20     30.35S WCI  18
$$
MIZ016>042-280300-
NORTHERN LOWER MICHIGAN

CITY           SKY/WX    TMP DP  RH WIND       PRES   REMARKS
ALPENA         CLOUDY    16   8  71 W10       30.25R WCI   4
BEAVER ISLAND  CLOUDY    19  10  68 NW8       30.30S WCI   8
BELLAIRE       CLOUDY    20  11  69 N6        30.30S WCI  12
CADILLAC       CLOUDY    16  11  82 W6        30.26R WCI   7
CHARLEVOIX     CLOUDY    19   9  64 N14       30.32S WCI   5
FRANKFORT      CLOUDY    20  12  72 NW10      30.33S WCI   9
GAYLORD        LGT SNOW  15  12  88 CALM      30.22S FOG
GRAYLING       CLOUDY    16  11  80 NW7       30.25S WCI   6
HARBOR SPRINGS FLURRIES  18   9  68 W3        30.28R
HOUGHTON LAKE  LGT SNOW  17  13  84 W6        30.26R FOG     WCI   9
MANISTEE       CLOUDY    19   9  63 NW9       30.34S WCI   9
OSCODA         CLOUDY    18   9  69 W9        30.26S WCI   7
PELLSTON       CLOUDY    17   8  67 NW12      30.28S WCI   4
ROGERS CITY    FLURRIES  17  12  81 W12       30.25S WCI   4
TRAVERSE CITY  FLURRIES  20  10  65 NW15      30.30S WCI   6
$$
MIZ007>008-015-280300-
EASTERN UPPER MICHIGAN

CITY           SKY/WX    TMP DP  RH WIND       PRES   REMARKS
KINROSS        CLOUDY    14  12  92 N3        30.24R VSB 3/4
MACKINAC ISLAN CLOUDY    16  10  80 NW13G18   30.26R WCI   2
NEWBERRY       MOCLDY     8   6  92 W7        30.26S WCI  -4
S. S. MARIE    CLEAR      9   2  73 NE7       30.25S WCI  -2
MUNISING         N/A     15   8  73 W9        30.31R WCI   3
$$
MIZ004>006-011>014-085-280300-
CENTRAL UPPER MICHIGAN

CITY           SKY/WX    TMP DP  RH WIND       PRES   REMARKS
MANISTIQUE     CLOUDY     9   5  82 W10G16    30.31S WCI  -5
ESCANABA       CLEAR      3  -4  72 NW5       30.35S WCI  -6
MENOMINEE      CLEAR      3   1  92 CALM      30.36S
$$
MIZ001>003-009>011-084-280300-
WESTERN UPPER MICHIGAN

CITY           SKY/WX    TMP DP  RH WIND       PRES   REMARKS
IRON MOUNTAIN  CLEAR     -4  -7  87 CALM      30.31S
HOUGHTON       FLURRIES   8   3  80 SW5       30.28F WCI   0
COPPER HARBOR    N/A     14   5  67 N9        30.31F WCI   2
IRONWOOD       PTCLDY    -8  -8 100 CALM      30.27F
$$

ABBREVIATIONS USED IN REMARKS
   TC - TEMPERATURE IN CELSIUS
  WCI - WIND CHILL INDEX
   HX - HEAT INDEX
  VSB - VISIBILITY




USA.gov is the U.S. government's official web portal to all federal, state and local government web resources and services.